Home   Weather   New York   Past weeks

Flag for USA Past Weather in New York, New York, USA — Yesterday and Last 2 Weeks

Now
56 °F

Overcast.


Feels Like: 54 °F
Forecast: 50 / 55 °F
Wind: 7 mph from Southeast

Location: New York City - Central Park

Current Time: Apr 24, 2017 at 9:14:11 pm

Latest Report: Apr 24, 2017 at 7:51 pm


Visibility: 10 mi

Pressure: 30.12 "Hg

Humidity: 62%

Dew Point: 43 °F

Location of New YorkLocation

Past Weather in New York — Graph

°F

New York Temperature Yesterday

Maximum temperature yesterday: 65 °F (at 1:51 pm)
Minimum temperature yesterday: 46 °F (at 5:51 am)
Average temperature yesterday: 54 °F

High & Low Weather Summary for the Past Weeks

 TemperatureHumidityPressure
High85 °F (Apr 16, 1:51 pm)97% (Apr 20, 9:03 am)30.54 "Hg (Apr 20, 9:03 am)
Low45 °F (Apr 19, 5:51 am)19% (Apr 17, 3:51 pm)29.76 "Hg (Apr 16, 6:51 pm)
Average58 °F60%30.14 "Hg
* Reported Apr 9 7:51 pm — Apr 24 7:51 pm, New York, Weather by CustomWeather, © 2017

Note: Actual official high and low records may vary slightly from our data, if they occured in-between our weather recording intervals... More about our weather records

Advertising

New York Weather History for the Previous 24 Hours

Scroll right to see more
 ConditionsComfort  
Time TempWeatherWind HumidityBarometerVisibility
7:51 pm
Mon, Apr 24
56 °FOvercast.7 mph62%30.12 "Hg10 mi
6:51 pm57 °FOvercast.3 mph60%30.13 "Hg10 mi
5:51 pm59 °FPartly sunny.6 mph54%30.13 "Hg10 mi
4:51 pm59 °FOvercast.3 mph60%30.14 "Hg10 mi
3:51 pm58 °FOvercast.No wind60%30.14 "Hg10 mi
2:51 pm60 °FMostly cloudy.5 mph52%30.14 "Hg10 mi
1:51 pm60 °FOvercast.3 mph52%30.15 "Hg10 mi
12:51 pm58 °FScattered clouds.7 mph58%30.16 "Hg9 mi
11:51 am59 °FSunny.3 mph54%30.16 "Hg10 mi
10:51 am57 °FSunny.3 mph58%30.17 "Hg9 mi
9:51 am56 °FSunny.No wind62%30.17 "Hg10 mi
8:51 am53 °FSunny.6 mph72%30.16 "Hg9 mi
7:51 am52 °FSunny.3 mph75%30.17 "Hg9 mi
6:51 am50 °FSunny.No wind83%30.15 "Hg10 mi
5:51 am48 °FClear.No wind83%30.13 "Hg10 mi
4:51 am50 °FClear.No wind71%30.12 "Hg10 mi
3:51 am49 °FClear.3 mph74%30.11 "Hg10 mi
2:51 am50 °FClear.3 mph63%30.10 "Hg10 mi
1:51 am51 °FClear.No wind61%30.12 "Hg10 mi
12:51 am51 °FClear.No wind66%30.13 "Hg10 mi
11:51 pm
Sun, Apr 23
52 °FClear.No wind61%30.12 "Hg10 mi
10:51 pm52 °FClear.5 mph66%30.13 "Hg10 mi
9:51 pm52 °FClear.6 mph66%30.12 "Hg10 mi
Weather by CustomWeather, © 2017

See weather overviewHow to use our weather pages